Weather History for KCQC - July, 2013

Change the Weather History Date:

Monday, July 1, 2013

  Actual Average (KSAF) Record (KSAF)
Temperature  
Mean Temperature 60 °F -  
Max Temperature 72 °F 95 °F 97 °F (1999)
Min Temperature 50 °F 61 °F 51 °F (2004)
Degree Days  
Heating Degree Days 5    
Growing Degree Days 10 (Base 50)    
Moisture  
Dew Point 52 °F    
Average Humidity 80    
Maximum Humidity 100    
Minimum Humidity 46    
Precipitation  
Precipitation 0.05 in - - ()
Sea Level Pressure  
Sea Level Pressure 30.25 in    
Wind  
Wind Speed 7 mph (East)    
Max Wind Speed 25 mph    
Max Gust Speed 38 mph    
Visibility 9 miles    
Events Rain    
Averages and records for this station are not official NWS values.
T = Trace of Precipitation, MM = Missing Value Source: NWS Daily Summary

Daily Weather History Graph

Daily Weather History Graph

Search for Another Location

Airport or City:

Trip Planner

Search our weather history database for the weather conditions in past years. The results will help you decide how hot, cold, wet, or windy it might be!

Date:

Astronomy

Jul. 01, 2013 Rise Set
Actual Time 5:52 AM MDT 8:20 PM MDT
Civil Twilight 5:22 AM MDT 8:50 PM MDT
Nautical Twilight 4:46 AM MDT 9:26 PM MDT
Astronomical Twilight 4:06 AM MDT 10:06 PM MDT
Moon 1:14 AM MDT (7/1) 2:45 PM MDT (7/1)
Length of Visible Light 15h 27m
Length of Day
14h 28m
Waning Crescent, 35% of the Moon is Illuminated
Jul 1
Waning Crescent
Jul 8
New
Jul 15
First Quarter
Jul 22
Full
Jul 29
Last Quarter

Hourly Weather History & Observations

Time (MDT) Temp. Dew Point Humidity Pressure Visibility Wind Dir Wind Speed Gust Speed Precip Events Conditions
12:53 AM 55.9 °F 53.1 °F 90% 30.06 in 10.0 mi ENE 5.8 mph - 0.01 in Rain Light Rain
1:53 AM 55.9 °F 52.0 °F 87% 30.03 in 10.0 mi WSW 9.2 mph - 0.00 in   Overcast
2:53 AM 55.0 °F 52.0 °F 89% 30.14 in 10.0 mi WNW 4.6 mph - 0.00 in   Mostly Cloudy
3:53 AM 55.0 °F 51.1 °F 86% 30.12 in 10.0 mi NE 3.5 mph - N/A   Clear
4:53 AM 52.0 °F 50.0 °F 93% 30.11 in 9.0 mi ENE 5.8 mph - N/A   Clear
5:17 AM 53.6 °F 51.8 °F 94% 30.38 in 1.8 mi ENE 5.8 mph - N/A   Partly Cloudy
5:40 AM 51.8 °F 51.8 °F 100% 30.38 in 3.0 mi East 5.8 mph - N/A   Partly Cloudy
5:53 AM 50.0 °F 48.9 °F 96% 30.12 in 1.2 mi SSE 3.5 mph - N/A   Partly Cloudy
6:05 AM 51.8 °F 48.2 °F 88% 30.38 in 3.0 mi ESE 3.5 mph - N/A   Clear
6:53 AM 53.1 °F 51.1 °F 93% 30.17 in 10.0 mi Calm Calm - N/A   Overcast
7:07 AM 53.6 °F 51.8 °F 94% 30.40 in 10.0 mi Calm Calm - N/A   Overcast
7:53 AM 55.9 °F 53.1 °F 90% 30.18 in 10.0 mi East 3.5 mph - N/A   Overcast
8:10 AM 57.2 °F 53.6 °F 88% 30.41 in 10.0 mi ESE 3.5 mph - N/A   Overcast
8:21 AM 57.2 °F 51.8 °F 82% 30.41 in 10.0 mi East 3.5 mph - N/A   Overcast
8:28 AM 57.2 °F 51.8 °F 82% 30.41 in 10.0 mi Calm Calm - N/A   Overcast
8:33 AM 57.2 °F 51.8 °F 82% 30.41 in 10.0 mi East 4.6 mph - N/A   Overcast
8:53 AM 57.9 °F 53.1 °F 84% 30.19 in 10.0 mi East 5.8 mph - N/A   Overcast
9:24 AM 60.8 °F 53.6 °F 77% 30.40 in 10.0 mi ESE 8.1 mph - N/A   Overcast
9:53 AM 63.0 °F 53.1 °F 70% 30.16 in 10.0 mi East 8.1 mph - N/A   Mostly Cloudy
10:03 AM 64.4 °F 53.6 °F 68% 30.39 in 10.0 mi East 8.1 mph - N/A   Mostly Cloudy
10:15 AM 62.6 °F 53.6 °F 72% 30.39 in 10.0 mi East 8.1 mph 17.3 mph N/A   Scattered Clouds
10:44 AM 64.4 °F 53.6 °F 68% 30.39 in 10.0 mi ESE 9.2 mph - N/A   Mostly Cloudy
10:53 AM 64.9 °F 53.1 °F 65% 30.16 in 10.0 mi SSE 5.8 mph - N/A   Mostly Cloudy
11:17 AM 64.4 °F 51.8 °F 64% 30.39 in 10.0 mi East 6.9 mph - N/A   Partly Cloudy
11:46 AM 66.2 °F 51.8 °F 60% 30.38 in 10.0 mi ESE 11.5 mph 17.3 mph N/A   Mostly Cloudy
11:53 AM 66.9 °F 52.0 °F 59% 30.14 in 10.0 mi East 10.4 mph - N/A   Mostly Cloudy
12:53 PM 68.0 °F 50.0 °F 52% 30.13 in 10.0 mi ESE 10.4 mph - N/A   Mostly Cloudy
1:53 PM 70.0 °F 48.0 °F 46% 30.10 in 10.0 mi SE 5.8 mph - N/A   Mostly Cloudy
2:53 PM 69.1 °F 50.0 °F 51% 30.08 in 10.0 mi SE 11.5 mph - 0.00 in Rain Light Rain
3:46 PM 57.2 °F 53.6 °F 88% 30.36 in 6.0 mi NE 24.2 mph 35.7 mph 0.00 in Rain Rain
3:53 PM 57.0 °F 52.0 °F 83% 30.18 in 5.0 mi NNE 25.3 mph 38.0 mph 0.02 in Rain Rain
4:53 PM 66.0 °F 54.0 °F 65% 30.10 in 10.0 mi ENE 17.3 mph 24.2 mph 0.02 in   Clear
5:53 PM 64.0 °F 52.0 °F 65% 30.13 in 10.0 mi East 19.6 mph 26.5 mph N/A   Clear
6:53 PM 61.0 °F 51.1 °F 70% 30.14 in 10.0 mi ESE 18.4 mph - N/A   Clear
7:53 PM 57.9 °F 52.0 °F 81% 30.17 in 10.0 mi East 11.5 mph - N/A   Partly Cloudy
8:53 PM 55.9 °F 51.1 °F 84% 30.17 in 10.0 mi East 13.8 mph - N/A   Clear
9:53 PM 55.0 °F 52.0 °F 89% 30.18 in 10.0 mi ESE 10.4 mph - N/A   Partly Cloudy
10:06 PM 53.6 °F 51.8 °F 94% 30.39 in 10.0 mi ESE 9.2 mph - N/A   Partly Cloudy
10:19 PM 53.6 °F 51.8 °F 94% 30.40 in 10.0 mi ESE 10.4 mph - N/A   Mostly Cloudy
10:53 PM 54.0 °F 52.0 °F 93% 30.18 in 10.0 mi East 9.2 mph - N/A   Mostly Cloudy
11:22 PM 53.6 °F 51.8 °F 94% 30.41 in 10.0 mi ESE 5.8 mph - N/A   Overcast
11:53 PM 54.0 °F 52.0 °F 93% 30.18 in 8.0 mi East 6.9 mph - N/A   Overcast